Location: Newark
(55.7083°N, 13.1992°E)
Time: 02:52:17
(UTC+00:00)

ISS - Visible Passes

Search period start: 18 January 2020 00:00
Search period end: 28 January 2020 00:00
Orbit: 415 x 421 km, 51.6° (Epoch: 18 January)

Date Brightness Start Highest point End Pass type
(mag) Time Alt. Az. Time Alt. Az. Time Alt. Az.
22 Jan -1.2 17:27:50 10° SSE 17:28:17 11° SSE 17:28:17 11° SSE visible
23 Jan -1.3 18:14:20 10° SW 18:15:21 16° SSW 18:15:21 16° SSW visible
24 Jan -2.0 17:26:46 10° SSW 17:29:17 20° SSE 17:29:24 20° SSE visible
25 Jan -1.5 16:39:25 10° S 16:41:27 15° SSE 16:43:24 10° ESE visible
25 Jan -1.9 18:14:29 10° SW 18:16:20 25° SSW 18:16:20 25° SSW visible
26 Jan -2.5 17:26:40 10° SW 17:29:39 29° SSE 17:30:18 27° SE visible
26 Jan -0.5 19:02:49 10° WSW 19:03:14 13° WSW 19:03:14 13° WSW visible
27 Jan -2.1 16:38:57 10° SSW 16:41:44 24° SSE 16:44:13 12° ESE visible
27 Jan -2.3 18:14:51 10° WSW 18:17:09 33° SW 18:17:09 33° SW visible
